Location: ???????????
(38.2661°N, 23.2350°E)
Time: 16:15:57
(UTC+00:00)

NOSS 2-3 (C) - Pass Details

Date: 25 September 2023
Orbit: 503 x 1698 km, 63.3° (Epoch: 01 December)

Event Time Altitude Azimuth Distance (km) Brightness Sun altitude
Rises 16:59:28 0° 202° (SSW) 2,633 7.0 -8.6°
Reaches altitude 10° 17:01:38 10° 198° (SSW) 1,713 6.0 -9.0°
Maximum altitude 17:05:15 56° 119° (ESE) 608 3.2 -9.7°
Drops below altitude 10° 17:09:04 10° 41° (NE) 1,807 5.6 -10.4°
Sets 17:11:25 0° 37° (NE) 2,797 6.6 -10.9°
